Home   Weather   Pembroke Pines   Past weeks

Flag for USA Past Weather in Pembroke Pines, Florida, USA — Yesterday and Last 2 Weeks

Now
76 °F

Strong thunderstorms. Fog.


Feels Like: 76 °F
Forecast: 76 / 85 °F
Wind: 5 mph from Southeast

Location: North Perry Airport

Current Time: Sep 26, 2016 at 1:31:01 PM

Latest Report: Sep 26, 2016 at 12:53 PM


Visibility: 5 mi

Pressure: 30.01 "Hg

Humidity: 88%

Dew Point: 72 °F

Location of Pembroke PinesLocation

Past Weather in Pembroke Pines — Graph

°F

Pembroke Pines Temperature Yesterday

Maximum temperature yesterday: 88 °F (at 12:53 PM)
Minimum temperature yesterday: 74 °F (at 7:53 AM)
Average temperature yesterday: 81 °F

High & Low Weather Summary for the Past Weeks

 TemperatureHumidityPressure
High93 °F (Sep 18, 1:53 PM)100% (Sep 14, 7:53 AM)30.09 "Hg (Sep 14, 7:53 AM)
Low74 °F (Sep 25, 7:53 AM)47% (Sep 18, 2:53 PM)29.91 "Hg (Sep 12, 6:53 PM)
Average82 °F77%30.00 "Hg
* Reported Sep 11 12:00 PM — Sep 26 11:53 AM, Pembroke Pines, Weather by CustomWeather, © 2016

Note: Actual official high and low records may vary slightly from our data, if they occured in-between our weather recording intervals... More about our weather records

Advertising

Pembroke Pines Weather History for the Previous 24 Hours

Scroll right to see more
 ConditionsComfort  
Time TempWeatherWind HumidityBarometerVisibility
11:53 AM
Mon, Sep 26
87 °FPassing clouds.3 mph59%30.01 "Hg10 mi
10:53 AM85 °FSunny.No wind68%30.03 "Hg10 mi
9:53 AM81 °FSunny.No wind82%30.01 "Hg10 mi
8:53 AM77 °FLight rain. Overcast.8 mph85%30.01 "Hg10 mi
8:02 AM79 °FThunderstorms. Passing clouds.No wind88%30.00 "Hg10 mi
7:53 AM78 °FPassing clouds.No wind90%29.99 "Hg10 mi
6:53 AM77 °FPassing clouds.No wind90%29.98 "Hg10 mi
5:53 AM77 °FClear.No wind88%29.96 "Hg10 mi
4:53 AM76 °FPassing clouds.No wind94%29.95 "Hg10 mi
3:53 AM77 °FClear.No wind88%29.96 "Hg10 mi
2:53 AM78 °FClear.No wind84%29.97 "Hg10 mi
1:53 AM78 °FClear.No wind84%29.98 "Hg10 mi
12:53 AM79 °FPassing clouds.No wind82%30.00 "Hg10 mi
11:53 PM
Sun, Sep 25
79 °FClear.No wind82%30.01 "Hg10 mi
10:53 PM79 °FClear.3 mph82%30.02 "Hg10 mi
9:53 PM80 °FPassing clouds.5 mph81%30.03 "Hg10 mi
8:53 PM80 °FClear.8 mph81%30.01 "Hg10 mi
7:53 PM82 °FPassing clouds.8 mph74%30.00 "Hg10 mi
6:53 PM83 °FSunny.9 mph72%29.98 "Hg10 mi
5:53 PM83 °FScattered clouds.10 mph74%29.98 "Hg10 mi
4:53 PM86 °FPassing clouds.8 mph65%29.96 "Hg10 mi
3:53 PM86 °FPassing clouds.8 mph67%29.98 "Hg10 mi
2:53 PM83 °FScattered clouds.9 mph72%29.99 "Hg10 mi
1:53 PM85 °FScattered clouds.10 mph68%30.01 "Hg10 mi
1:04 PM87 °FSunny.9 mph61%30.03 "Hg10 mi
Weather by CustomWeather, © 2016

See weather overviewHow to use our weather pages